SCOUT A DEB, 2889

Orbit data source: Space-Track

SCOUT A DEB, 2889 is space debris in LEO originally from a launch on Fri, 28 Jan 1966 UTC launched from the Air Force Western Test Range (AFWTR). Debris objects in space refer to the collection of defunct objects orbiting the Earth. Examples of debris include non-operational satellites, rocket bodies, and fragments generated from explosions, collisions, or faulty payload assembly.

Loading next visibility...
Identifier
2889, 1966-005E
Orbit
LEO
Country
Flag of USUS
Related business
Manufacturer
Unknown
Mission
Spacecraft
Bus & Motor
Unknown
Mass
Unknown
Launch date (UTC)
1966-01-28 (61 years ago)
Launch vehicle
Unknown
Launch site
Air Force Western Test Range (AFWTR)
Object type
Payload
Rocket body
Debris
Shape & HBR
Unknown shape, 0.1 m
Radar Cross Section
Medium (>0.1 m² and <1 m²)

Expand to show TLE details & history
Last TLE update: 1 day ago

TLE from 1 day ago
0 SCOUT A DEB
1 02889U 66005E   26235.23298780  .00000029  00000-0  48146-4 0  9999
2 02889  89.5407 155.0627 0166274 335.5707 178.9401 13.18019303845224
Epoch: 2026-08-23T05:35Z
TLE epoch observation values (Epoch: 2026-08-23T05:35:30.145Z)
Latitude
25.48016°
Longitude
-80.56269°
Altitude
1,321.28 km
Speed
7.139 km/s
True Right ascension
22h 19m 22s
True Declination
25° 21' 24"
Sunlit
Object was in full shadow at epoch
Visualization orbit readout
Latitude
Unknown
Longitude
Unknown
Altitude
Unknown
Speed
Unknown
Apparent Right ascension
Unknown
Apparent Declination
Unknown
Sunlit
N/A
Visualization observer readout
Local Sidereal Time
07:11:07
Azimuth
Unknown
Elevation
Unknown
Doppler factor
Unknown
Orbital elements
Apogee altitude
1,315.219 km
Perigee altitude
1,063.563 km
Semi-major axis
7,567.528 km
Eccentricity
0.01663
Inclination
89.5407°
RAAN
155.0627°
Arg. of periapsis
335.5707°
True anomaly
178.97463°
Mean anomaly
178.9401°
Eccentric anomaly
178.95743°
Mean motion
3.29695 °/min
Orbital period
109.19 mins
BSTAR
0.000048146
Loading maneuver chart data...
Computing Atmospheric mass density...
Loading historical data...
Loading historical data...
Loading historical data...
Loading historical data...
Loading historical data...
Loading historical data...
Loading historical data...

Documentation

Showing up to 5 results
|